Weather History for LEPA - February, 2013

Change the Weather History Date:

Thursday, February 21, 2013

  Actual Average Record
Temperature  
Mean Temperature 50 °F -  
Max Temperature 64 °F 60 °F 69 °F (2004)
Min Temperature 35 °F 40 °F 32 °F (2001)
Degree Days  
Heating Degree Days 16    
Moisture  
Dew Point 46 °F    
Average Humidity 83    
Maximum Humidity 100    
Minimum Humidity 52    
Precipitation  
Precipitation 0.00 in 0.05 in - ()
Sea Level Pressure  
Sea Level Pressure 29.80 in    
Wind  
Wind Speed 3 mph ()    
Max Wind Speed 17 mph    
Max Gust Speed -    
Visibility 6.5 miles    
Events      
Averages and records for this station are not official NWS values.
T = Trace of Precipitation, MM = Missing Value Source: Averaged Metar Reports

Daily Weather History Graph

Daily Weather History Graph

Search for Another Location

Airport or City:

Trip Planner

Search our weather history database for the weather conditions in past years. The results will help you decide how hot, cold, wet, or windy it might be!

Date:

Astronomy

Feb. 21, 2013 Rise Set
Actual Time 7:33 AM CET 6:32 PM CET
Civil Twilight 7:06 AM CET 6:59 PM CET
Nautical Twilight 6:34 AM CET 7:31 PM CET
Astronomical Twilight 6:03 AM CET 8:02 PM CET
Moon 2:33 PM CET (2/21) 4:26 AM CET (2/21)
Length of Visible Light 11h 53m
Length of Day
10h 59m
Waxing Gibbous, 82% of the Moon is Illuminated
Feb 21
Waxing Gibbous
Feb 25
Full
Mar 4
Last Quarter
Mar 11
New
Mar 19
First Quarter

Hourly Weather History & Observations

Time (CET) Temp. Dew Point Humidity Pressure Visibility Wind Dir Wind Speed Gust Speed Precip Events Conditions
12:00 AM 41.0 °F 37.4 °F 87% 29.92 in 6.2 mi Calm Calm - N/A   Partly Cloudy
12:30 AM 39.2 °F 37.4 °F 93% 29.92 in 6.2 mi Calm Calm - N/A   Partly Cloudy
1:00 AM 37 °F 34 °F 83% 29.92 in 9 mi Calm Calm - -   Scattered Clouds
1:00 AM 39.2 °F 37.4 °F 93% 29.92 in 6.2 mi ENE 1.2 mph - N/A   Partly Cloudy
1:30 AM 39.2 °F 35.6 °F 87% 29.92 in 6.2 mi Variable 1.2 mph - N/A   Partly Cloudy
2:00 AM 37.4 °F 35.6 °F 93% 29.89 in 6.2 mi Calm Calm - N/A   Partly Cloudy
2:30 AM 37.4 °F 35.6 °F 93% 29.89 in 6.2 mi ENE 1.2 mph - N/A   Partly Cloudy
3:00 AM 37.4 °F 35.6 °F 93% 29.89 in 6.2 mi NE 1.2 mph - N/A   Partly Cloudy
4:00 AM 37.4 °F 35.6 °F 93% 29.86 in 6.2 mi Variable 1.2 mph - N/A   Partly Cloudy
5:00 AM 39.2 °F 37.4 °F 93% 29.86 in 6.2 mi Calm Calm - N/A   Partly Cloudy
5:30 AM 41.0 °F 39.2 °F 93% 29.86 in 6.2 mi Calm Calm - N/A   Partly Cloudy
6:00 AM 41.0 °F 39.2 °F 93% 29.83 in 6.2 mi NNE 1.2 mph - N/A   Partly Cloudy
6:30 AM 42.8 °F 41.0 °F 93% 29.83 in 6.2 mi Calm Calm - N/A   Partly Cloudy
7:00 AM 41 °F 39 °F 91% 29.84 in 7 mi NNW 2.3 mph - -   Scattered Clouds
7:00 AM 42.8 °F 42.8 °F 100% 29.83 in 6.2 mi Variable 1.2 mph - N/A   Scattered Clouds
7:30 AM 44.6 °F 42.8 °F 93% 29.83 in 6.2 mi Calm Calm - N/A   Scattered Clouds
8:00 AM 46.4 °F 44.6 °F 93% 29.83 in 6.2 mi NNW 2.3 mph - N/A   Scattered Clouds
8:30 AM 46.4 °F 46.4 °F 100% 29.83 in 6.2 mi Calm Calm - N/A   Scattered Clouds
9:00 AM 48.2 °F 46.4 °F 93% 29.83 in 6.2 mi Calm Calm - N/A   Scattered Clouds
9:30 AM 48.2 °F 46.4 °F 93% 29.83 in 6.2 mi Calm Calm - N/A   Partly Cloudy
10:00 AM 51.8 °F 50.0 °F 94% 29.83 in 6.2 mi Calm Calm - N/A   Scattered Clouds
10:30 AM 53.6 °F 51.8 °F 94% 29.83 in 6.2 mi Calm Calm - N/A   Scattered Clouds
11:00 AM 55.4 °F 51.8 °F 88% 29.83 in 6.2 mi WSW 1.2 mph - N/A   Partly Cloudy
11:30 AM 57.2 °F 53.6 °F 88% 29.83 in 6.2 mi Variable 2.3 mph - N/A   Partly Cloudy
12:00 PM 59.0 °F 53.6 °F 82% 29.83 in 6.2 mi Variable 2.3 mph - N/A   Partly Cloudy
12:30 PM 59.0 °F 53.6 °F 82% 29.80 in 6.2 mi SW 5.8 mph - N/A   Partly Cloudy
1:00 PM 59.0 °F 53.6 °F 82% 29.80 in 6.2 mi SW 11.5 mph - N/A   Partly Cloudy
1:30 PM 60.8 °F 53.6 °F 77% 29.77 in 6.2 mi WSW 10.4 mph - N/A   Partly Cloudy
2:00 PM 62.6 °F 53.6 °F 72% 29.77 in 6.2 mi WSW 6.9 mph - N/A   Partly Cloudy
2:30 PM 64.4 °F 48.2 °F 56% 29.77 in 6.2 mi NNW 13.8 mph - N/A   Scattered Clouds
3:00 PM 64.4 °F 46.4 °F 52% 29.74 in 6.2 mi North 11.5 mph - N/A   Partly Cloudy
3:30 PM 64.4 °F 46.4 °F 52% 29.74 in 6.2 mi NW 8.1 mph - N/A   Partly Cloudy
4:00 PM 62.6 °F 51.8 °F 68% 29.74 in 6.2 mi WSW 16.1 mph - N/A   Partly Cloudy
4:30 PM 60.8 °F 50.0 °F 68% 29.74 in 6.2 mi WSW 17.3 mph - N/A   Partly Cloudy
5:00 PM 60.8 °F 48.2 °F 63% 29.74 in 6.2 mi WSW 17.3 mph - N/A   Partly Cloudy
5:30 PM 59.0 °F 50.0 °F 72% 29.74 in 6.2 mi WSW 15.0 mph - N/A   Partly Cloudy
6:00 PM 57.2 °F 48.2 °F 72% 29.74 in 6.2 mi West 16.1 mph - N/A   Partly Cloudy
6:30 PM 57.2 °F 48.2 °F 72% 29.74 in 6.2 mi West 9.2 mph - N/A   Partly Cloudy
7:00 PM 55 °F 44 °F 58% 29.76 in 16 mi West 3.5 mph - -   Scattered Clouds
7:00 PM 57.2 °F 48.2 °F 72% 29.74 in 6.2 mi WSW 9.2 mph - N/A   Partly Cloudy
7:30 PM 57.2 °F 50.0 °F 77% 29.74 in 6.2 mi West 10.4 mph - N/A   Partly Cloudy
8:00 PM 57.2 °F 50.0 °F 77% 29.74 in 6.2 mi West 12.7 mph - N/A   Partly Cloudy
8:30 PM 57.2 °F 50.0 °F 77% 29.74 in 6.2 mi West 11.5 mph - N/A   Partly Cloudy
9:00 PM 57.2 °F 51.8 °F 82% 29.74 in 6.2 mi WSW 5.8 mph - N/A   Partly Cloudy
9:30 PM 55.4 °F 50.0 °F 82% 29.74 in 6.2 mi SW 8.1 mph - N/A   Partly Cloudy
10:00 PM 55.4 °F 51.8 °F 88% 29.71 in 6.2 mi SSW 5.8 mph - N/A   Partly Cloudy
10:30 PM 55.4 °F 51.8 °F 88% 29.71 in 6.2 mi SW 9.2 mph - N/A   Partly Cloudy
11:00 PM 57.2 °F 51.8 °F 82% 29.71 in 6.2 mi WSW 9.2 mph - N/A   Partly Cloudy
11:30 PM 55.4 °F 50.0 °F 82% 29.68 in 6.2 mi WSW 2.3 mph - N/A   Partly Cloudy